• In Kazakhstan
  • List of Countries
  • For 7 days
  • Water Temperature
  • Satellite Maps
  • Weather Map
  • News
  • Weather Widgets
  • user-avatar
    Login

    Hourly Weather Bankura

    Today, 23 November, Thursday

    Time Temperature Precipitation Wind Pressure Humidity
    00:00 +21°C° 0 mm 1 mps 752 mmHg 40%
    01:00 +20°C° 0 mm 2 mps 751 mmHg 42%
    02:00 +19°C° 0 mm 2 mps 751 mmHg 43%
    03:00 +19°C° 0 mm 2 mps 751 mmHg 45%
    04:00 +19°C° 0 mm 2 mps 751 mmHg 46%
    05:00 +18°C° 0 mm 3 mps 751 mmHg 47%
    06:00 +18°C° 0 mm 3 mps 751 mmHg 48%
    07:00 +19°C° 0 mm 3 mps 752 mmHg 44%
    08:00 +21°C° 0 mm 3 mps 752 mmHg 41%
    09:00 +22°C° 0 mm 3 mps 753 mmHg 38%
    10:00 +25°C° 0 mm 3 mps 753 mmHg 33%
    11:00 +27°C° 0 mm 3 mps 752 mmHg 28%
    12:00 +28°C° 0 mm 3 mps 752 mmHg 26%
    13:00 +28°C° 0 mm 2 mps 751 mmHg 25%
    14:00 +28°C° 0 mm 2 mps 751 mmHg 24%
    15:00 +29°C° 0 mm 2 mps 750 mmHg 24%
    16:00 +27°C° 0 mm 2 mps 750 mmHg 27%
    17:00 +25°C° 0 mm 2 mps 750 mmHg 30%
    18:00 +22°C° 0 mm 0 mps 750 mmHg 31%
    19:00 +23°C° 0 mm 1 mps 751 mmHg 32%
    20:00 +23°C° 0 mm 1 mps 751 mmHg 33%
    21:00 +22°C° 0 mm 1 mps 752 mmHg 34%
    22:00 +20°C° 0 mm 2 mps 752 mmHg 36%
    23:00 +20°C° 0 mm 2 mps 752 mmHg 38%

    Tomorrow, 24 November, Friday

    Time Temperature Precipitation Wind Pressure Humidity
    00:00 +19°C° 0 mm 2 mps 752 mmHg 41%
    01:00 +19°C° 0 mm 2 mps 752 mmHg 43%
    02:00 +18°C° 0 mm 2 mps 752 mmHg 44%
    03:00 +18°C° 0 mm 2 mps 752 mmHg 46%
    04:00 +17°C° 0 mm 2 mps 752 mmHg 47%
    05:00 +17°C° 0 mm 2 mps 752 mmHg 48%
    06:00 +17°C° 0 mm 2 mps 752 mmHg 48%
    07:00 +18°C° 0 mm 2 mps 753 mmHg 45%
    08:00 +20°C° 0 mm 2 mps 753 mmHg 42%
    09:00 +23°C° 0 mm 2 mps 754 mmHg 38%
    10:00 +24°C° 0 mm 2 mps 753 mmHg 34%
    11:00 +26°C° 0 mm 2 mps 753 mmHg 29%
    12:00 +28°C° 0 mm 2 mps 753 mmHg 25%
    13:00 +28°C° 0 mm 2 mps 753 mmHg 23%
    14:00 +29°C° 0 mm 2 mps 752 mmHg 22%
    15:00 +29°C° 0 mm 2 mps 751 mmHg 21%
    16:00 +27°C° 0 mm 2 mps 751 mmHg 24%
    17:00 +26°C° 0 mm 1 mps 751 mmHg 26%
    18:00 +24°C° 0 mm 1 mps 751 mmHg 29%
    19:00 +23°C° 0 mm 1 mps 752 mmHg 31%
    20:00 +22°C° 0 mm 1 mps 752 mmHg 32%
    21:00 +22°C° 0 mm 1 mps 753 mmHg 34%
    22:00 +21°C° 0 mm 1 mps 753 mmHg 36%
    23:00 +21°C° 0 mm 1 mps 753 mmHg 38%

    Day after tomorrow, 25 November, Saturday

    Time Temperature Precipitation Wind Pressure Humidity
    00:00 +20°C° 0 mm 1 mps 753 mmHg 39%
    01:00 +20°C° 0 mm 1 mps 753 mmHg 41%
    02:00 +19°C° 0 mm 1 mps 753 mmHg 42%
    03:00 +19°C° 0 mm 1 mps 753 mmHg 43%
    04:00 +18°C° 0 mm 1 mps 753 mmHg 44%
    05:00 +18°C° 0 mm 1 mps 753 mmHg 44%
    06:00 +18°C° 0 mm 1 mps 753 mmHg 45%
    07:00 +19°C° 0 mm 2 mps 753 mmHg 42%
    08:00 +20°C° 0 mm 2 mps 754 mmHg 40%
    09:00 +23°C° 0 mm 2 mps 755 mmHg 37%
    10:00 +24°C° 0 mm 2 mps 754 mmHg 33%
    11:00 +26°C° 0 mm 2 mps 754 mmHg 29%
    12:00 +28°C° 0 mm 2 mps 754 mmHg 25%
    13:00 +28°C° 0 mm 2 mps 753 mmHg 24%
    14:00 +29°C° 0 mm 2 mps 752 mmHg 23%
    15:00 +29°C° 0 mm 2 mps 752 mmHg 21%
    16:00 +27°C° 0 mm 2 mps 752 mmHg 24%
    17:00 +26°C° 0 mm 2 mps 752 mmHg 27%
    18:00 +24°C° 0 mm 1 mps 752 mmHg 30%
    19:00 +23°C° 0 mm 1 mps 753 mmHg 31%
    20:00 +22°C° 0 mm 1 mps 753 mmHg 33%
    21:00 +22°C° 0 mm 1 mps 754 mmHg 34%
    22:00 +21°C° 0 mm 1 mps 754 mmHg 36%
    23:00 +21°C° 0 mm 1 mps 754 mmHg 38%

    26 November, Sunday

    Time Temperature Precipitation Wind Pressure Humidity
    00:00 +20°C° 0 mm 1 mps 754 mmHg 39%
    01:00 +20°C° 0 mm 1 mps 754 mmHg 41%
    02:00 +19°C° 0 mm 1 mps 754 mmHg 42%
    03:00 +19°C° 0 mm 1 mps 753 mmHg 43%
    04:00 +18°C° 0 mm 1 mps 754 mmHg 44%
    05:00 +18°C° 0 mm 1 mps 754 mmHg 44%
    06:00 +18°C° 0 mm 1 mps 754 mmHg 45%
    07:00 +20°C° 0 mm 1 mps 754 mmHg 42%
    08:00 +20°C° 0 mm 2 mps 755 mmHg 40%
    09:00 +23°C° 0 mm 2 mps 756 mmHg 37%
    10:00 +24°C° 0 mm 2 mps 755 mmHg 34%
    11:00 +26°C° 0 mm 2 mps 754 mmHg 31%
    12:00 +27°C° 0 mm 2 mps 754 mmHg 28%
    13:00 +28°C° 0 mm 2 mps 753 mmHg 27%
    14:00 +29°C° 0 mm 2 mps 752 mmHg 25%
    15:00 +29°C° 0 mm 2 mps 752 mmHg 24%
    16:00 +27°C° 0 mm 2 mps 752 mmHg 27%
    17:00 +26°C° 0 mm 1 mps 752 mmHg 30%
    18:00 +24°C° 0 mm 1 mps 752 mmHg 33%
    19:00 +23°C° 0 mm 1 mps 752 mmHg 34%
    20:00 +23°C° 0 mm 1 mps 753 mmHg 35%
    21:00 +20°C° 0 mm 0 mps 753 mmHg 36%
    22:00 +22°C° 0 mm 1 mps 753 mmHg 37%
    23:00 +21°C° 0 mm 1 mps 753 mmHg 38%

    27 November, Monday

    Time Temperature Precipitation Wind Pressure Humidity
    00:00 +21°C° 0 mm 1 mps 753 mmHg 39%
    01:00 +20°C° 0 mm 1 mps 753 mmHg 40%
    02:00 +19°C° 0 mm 2 mps 753 mmHg 42%
    03:00 +18°C° 0 mm 2 mps 752 mmHg 43%
    04:00 +18°C° 0 mm 2 mps 752 mmHg 44%
    05:00 +18°C° 0 mm 2 mps 753 mmHg 45%
    06:00 +18°C° 0 mm 1 mps 753 mmHg 47%
    07:00 +20°C° 0 mm 1 mps 753 mmHg 44%
    08:00 +22°C° 0 mm 1 mps 754 mmHg 41%
    09:00 +23°C° 0 mm 2 mps 754 mmHg 38%
    10:00 +25°C° 0 mm 2 mps 754 mmHg 35%
    11:00 +26°C° 0 mm 2 mps 753 mmHg 31%
    12:00 +28°C° 0 mm 2 mps 753 mmHg 28%
    13:00 +29°C° 0 mm 2 mps 752 mmHg 26%
    14:00 +29°C° 0 mm 2 mps 751 mmHg 25%
    15:00 +30°C° 0 mm 2 mps 750 mmHg 23%
    16:00 +28°C° 0 mm 2 mps 750 mmHg 26%
    17:00 +26°C° 0 mm 1 mps 751 mmHg 29%
    18:00 +24°C° 0 mm 1 mps 751 mmHg 32%
    19:00 +24°C° 0 mm 1 mps 751 mmHg 34%
    20:00 +23°C° 0 mm 1 mps 752 mmHg 36%
    21:00 +20°C° 0 mm 0 mps 752 mmHg 37%
    22:00 +22°C° 0 mm 1 mps 752 mmHg 38%
    23:00 +21°C° 0 mm 1 mps 752 mmHg 40%

    28 November, Tuesday

    Time Temperature Precipitation Wind Pressure Humidity
    00:00 +21°C° 0 mm 1 mps 752 mmHg 41%
    01:00 +20°C° 0 mm 1 mps 751 mmHg 42%
    02:00 +20°C° 0 mm 1 mps 751 mmHg 43%
    03:00 +19°C° 0 mm 1 mps 751 mmHg 44%
    04:00 +19°C° 0 mm 1 mps 751 mmHg 45%
    05:00 +19°C° 0 mm 1 mps 752 mmHg 46%
    06:00 +19°C° 0 mm 1 mps 752 mmHg 47%
    07:00 +20°C° 0 mm 1 mps 752 mmHg 44%
    08:00 +22°C° 0 mm 1 mps 753 mmHg 41%
    09:00 +24°C° 0 mm 1 mps 754 mmHg 38%
    10:00 +25°C° 0 mm 1 mps 753 mmHg 34%
    11:00 +27°C° 0 mm 1 mps 753 mmHg 30%
    12:00 +29°C° 0 mm 1 mps 752 mmHg 26%
    13:00 +29°C° 0 mm 1 mps 752 mmHg 24%
    14:00 +30°C° 0 mm 2 mps 751 mmHg 22%
    15:00 +30°C° 0 mm 2 mps 751 mmHg 20%
    16:00 +28°C° 0 mm 2 mps 751 mmHg 23%
    17:00 +27°C° 0 mm 2 mps 751 mmHg 26%
    18:00 +25°C° 0 mm 1 mps 751 mmHg 28%
    19:00 +24°C° 0 mm 1 mps 752 mmHg 30%
    20:00 +23°C° 0 mm 1 mps 752 mmHg 32%
    21:00 +22°C° 0 mm 1 mps 753 mmHg 34%
    22:00 +22°C° 0 mm 1 mps 752 mmHg 35%
    23:00 +21°C° 0 mm 1 mps 752 mmHg 37%
    Show more